Flag for U.S.A. Weather past 2 weeks in Rapid City, South Dakota, U.S.A.

Now
79 °F

Sunny.


Feels Like: 79 °F
Forecast: 54 / 87 °F
Wind: 10 mph from Southeast

Location: Ellsworth Air Force Base

Current Time: Sep 2, 2014 at 6:13:53 PM

Latest Report: Sep 2, 2014 at 5:58 PM


Visibility: 10 mi

Pressure: 29.78 "Hg

Humidity: 33%

Dew point: 47 °F

Location of Rapid CityLocation

Historic Weather in Rapid City — Graph

°F

Rapid City temperature yesterday

Maximum temperature yesterday: 71 °F (at 12:58 PM)
Minimum temperature yesterday: 50 °F (at 4:58 AM)
Average temperature yesterday: 59 °F

Past Weeks' High & Low Weather Summary

 TemperatureHumidityPressure
High88 °F (Aug 30, 3:58 PM)100% (Aug 22, 5:58 AM)30.18 "Hg (Aug 22, 5:58 AM)
Low48 °F (Sep 2, 3:58 AM)30% (Aug 30, 4:58 PM)29.57 "Hg (Aug 30, 7:58 PM)
Average66 °F69%29.90 "Hg
* Reported Aug 18 4:58 PM — Sep 2 4:58 PM, Rapid City, Weather by CustomWeather, © 2014

Note: Actual official high and low records may vary slightly from our data, if they occured in-between our weather recording intervals... More about our weather records

Advertising

Rapid City weather history for previous 24 hours

 ConditionsComfort  
Time TempWeatherWind HumidityBarometerVisibility
4:58 PM
Sep 2
80 °FSunny.6 mph30%29.79 "Hg10 mi
3:58 PM80 °FSunny.3 mph32%29.81 "Hg10 mi
2:58 PM80 °FSunny.9 mph33%29.81 "Hg10 mi
1:58 PM80 °FSunny.9 mph30%29.83 "Hg10 mi
12:58 PM79 °FSunny.2 mph33%29.84 "Hg10 mi
11:58 AM78 °FSunny.5 mph37%29.86 "Hg10 mi
10:58 AM75 °FSunny.12 mph41%29.88 "Hg10 mi
9:58 AM71 °FSunny.12 mph46%29.90 "Hg10 mi
8:58 AM66 °FSunny.12 mph52%29.91 "Hg10 mi
7:58 AM59 °FSunny.9 mph59%29.93 "Hg10 mi
6:58 AM52 °FClear.9 mph70%29.93 "Hg10 mi
5:58 AM50 °FClear.8 mph70%29.95 "Hg10 mi
4:58 AM49 °FClear.8 mph74%29.95 "Hg10 mi
3:58 AM48 °FClear.7 mph80%29.98 "Hg10 mi
2:58 AM51 °FClear.5 mph71%29.97 "Hg10 mi
1:58 AM50 °FClear.9 mph76%29.96 "Hg10 mi
12:58 AM51 °FClear.6 mph75%29.96 "Hg10 mi
11:58 PM
Sep 1
52 °FClear.8 mph77%29.98 "Hg10 mi
10:58 PM51 °FClear.7 mph82%29.98 "Hg10 mi
9:58 PM54 °FClear.5 mph79%29.98 "Hg10 mi
8:58 PM56 °FClear.6 mph68%29.97 "Hg10 mi
7:58 PM59 °FSunny.3 mph68%29.94 "Hg10 mi
6:58 PM64 °FSunny.5 mph59%29.93 "Hg10 mi
Weather by CustomWeather, © 2014

See weather overviewHow to use our weather pages